Athens, OH

4:36 AM EDT on October 23, 2019 (GMT -0400)
Ohio University

Weather History for KUNI - August, 2019

Change the Weather History Date:

Saturday, August 17, 2019

  Actual Average (KPKB) Record (KPKB)
Temperature  
Mean Temperature 74 °F 74 °F  
Max Temperature 87 °F 84 °F 101 °F (1988)
Min Temperature 62 °F 63 °F 50 °F (1979)
Degree Days  
Heating Degree Days 0 0  
Month to date heating degree days 0  
Since 1 June heating degree days 20  
Since 1 July heating degree days 1  
Cooling Degree Days 10 9  
Month to date cooling degree days 153  
Year to date cooling degree days 720  
Since 1 June cooling degree days 636  
Growing Degree Days 24 (Base 50)    
Moisture  
Dew Point 68 °F    
Average Humidity 83    
Maximum Humidity 100    
Minimum Humidity 50    
Precipitation  
Precipitation 0.00 in 0.12 in 1.87 in (1997)
Month to date precipitation 2.04  
Year to date precipitation 27.22  
Sea Level Pressure  
Sea Level Pressure 29.99 in    
Wind  
Wind Speed 1 mph (WSW)    
Max Wind Speed 10 mph    
Max Gust Speed -    
Visibility 10 miles    
Events      
T = Trace of Precipitation, MM = Missing Value Source: NWS Daily Summary

Daily Weather History Graph

Daily Weather History Graph

Search for Another Location

Airport or City:

Astronomy

Aug. 17, 2019 Rise Set
Actual Time 6:43 AM EDT 8:21 PM EDT
Civil Twilight 6:15 AM EDT 8:50 PM EDT
Nautical Twilight 5:40 AM EDT 9:24 PM EDT
Astronomical Twilight 5:04 AM EDT 10:00 PM EDT
Moon 9:49 PM EDT (8/17) 8:30 AM EDT (8/17)
Length of Visible Light 14h 35m
Length of Day
13h 38m
Waning Gibbous, 96% of the Moon is Illuminated
Aug 17
Waning Gibbous
Aug 23
Last Quarter
Aug 30
New
Sep 5
First Quarter
Sep 14
Full

Hourly Weather History & Observations

Time (EDT) Temp. Heat Index Dew Point Humidity Pressure Visibility Wind Dir Wind Speed Gust Speed Precip Events Conditions
12:15 AM 67.3 °F - 67.3 °F 100% 29.99 in 10.0 mi Calm Calm - N/A   Clear
12:35 AM 66.4 °F - 66.4 °F 100% 29.99 in 10.0 mi Calm Calm - N/A   Clear
12:55 AM 66.4 °F - 66.4 °F 100% 29.99 in 10.0 mi Calm Calm - N/A   Clear
1:15 AM 66.4 °F - 66.4 °F 100% 30.00 in 10.0 mi Calm Calm - N/A   Clear
1:35 AM 65.3 °F - 65.3 °F 100% 29.99 in 10.0 mi Calm Calm - N/A   Clear
1:55 AM 65.5 °F - 65.5 °F 100% 29.99 in 10.0 mi Calm Calm - N/A   Clear
2:15 AM 65.5 °F - 65.5 °F 100% 29.99 in 10.0 mi Calm Calm - N/A   Clear
2:35 AM 64.6 °F - 64.6 °F 100% 29.99 in 10.0 mi Calm Calm - N/A   Clear
2:55 AM 64.6 °F - 64.6 °F 100% 29.98 in 10.0 mi Calm Calm - N/A   Clear
3:15 AM 64.4 °F - 64.4 °F 100% 29.98 in 10.0 mi Calm Calm - N/A   Clear
3:35 AM 64.4 °F - 64.4 °F 100% 29.98 in 10.0 mi Calm Calm - N/A   Clear
3:55 AM 63.9 °F - 63.9 °F 100% 29.98 in 10.0 mi Calm Calm - N/A   Clear
4:15 AM 63.9 °F - 63.9 °F 100% 29.99 in 10.0 mi Calm Calm - N/A   Clear
4:35 AM 63.1 °F - 63.1 °F 100% 29.99 in 10.0 mi Calm Calm - N/A   Clear
4:55 AM 63.5 °F - 63.5 °F 100% 29.99 in 10.0 mi Calm Calm - N/A   Clear
5:15 AM 63.3 °F - 63.3 °F 100% 29.98 in 10.0 mi Calm Calm - N/A   Clear
5:35 AM 62.8 °F - 62.8 °F 100% 29.98 in 7.0 mi Calm Calm - N/A   Clear
5:55 AM 63.3 °F - 63.3 °F 100% 29.98 in 10.0 mi Calm Calm - N/A   Clear
6:15 AM 62.6 °F - 62.6 °F 100% 29.98 in 10.0 mi Calm Calm - N/A   Clear
6:35 AM 63.1 °F - 63.1 °F 100% 29.98 in 10.0 mi Calm Calm - N/A   Clear
6:55 AM 62.4 °F - 62.4 °F 100% 29.98 in 10.0 mi North - - N/A   Clear
7:15 AM 62.8 °F - 62.8 °F 100% 29.99 in 10.0 mi Calm Calm - N/A   Clear
7:35 AM 63.9 °F - 63.9 °F 100% 29.99 in 10.0 mi Calm Calm - N/A   Clear
7:55 AM 65.5 °F - 65.5 °F 100% 29.99 in 10.0 mi Calm Calm - N/A   Clear
8:15 AM 66.9 °F - 66.9 °F 100% 30.00 in 10.0 mi Calm Calm - N/A   Clear
8:35 AM 68.5 °F - 68.5 °F 100% 30.02 in 10.0 mi North - - N/A   Clear
8:55 AM 70.9 °F - 69.1 °F 94% 30.02 in 10.0 mi SW 3.5 mph - N/A   Clear
9:15 AM 72.0 °F - 69.3 °F 91% 30.02 in 10.0 mi SW 3.5 mph - N/A   Clear
9:35 AM 73.0 °F - 69.1 °F 87% 30.01 in 10.0 mi SSW 3.5 mph - N/A   Clear
9:55 AM 74.7 °F - 70.0 °F 85% 30.02 in 10.0 mi Calm Calm - N/A   Clear
10:15 AM 75.4 °F - 69.8 °F 83% 30.02 in 10.0 mi Calm Calm - N/A   Clear
10:35 AM 77.2 °F - 70.2 °F 79% 30.03 in 10.0 mi Calm Calm - N/A   Clear
10:55 AM 78.8 °F - 68.9 °F 72% 30.03 in 10.0 mi Calm Calm - N/A   Clear
11:15 AM 80.6 °F 83.8 °F 69.4 °F 69% 30.04 in 10.0 mi Calm Calm - N/A   Clear
11:35 AM 80.8 °F 83.6 °F 68.5 °F 66% 30.03 in 10.0 mi WSW 4.6 mph - N/A   Clear
11:55 AM 82.0 °F 85.1 °F 68.5 °F 63% 30.03 in 10.0 mi South 6.9 mph - N/A   Clear
12:15 PM 82.6 °F 85.7 °F 68.5 °F 62% 30.03 in 10.0 mi SW 4.6 mph - N/A   Scattered Clouds
12:35 PM 82.8 °F 86.4 °F 69.3 °F 64% 30.03 in 10.0 mi West 4.6 mph - N/A   Scattered Clouds
12:55 PM 82.4 °F 86.1 °F 69.6 °F 65% 30.04 in 10.0 mi SW 4.6 mph - N/A   Clear
1:15 PM 84.2 °F 87.9 °F 68.9 °F 60% 30.04 in 10.0 mi WSW 8.1 mph - N/A   Scattered Clouds
1:35 PM 84.6 °F 87.9 °F 68.4 °F 58% 30.03 in 10.0 mi SW 5.8 mph - N/A   Scattered Clouds
1:55 PM 84.7 °F 88.2 °F 68.5 °F 58% 30.02 in 10.0 mi SW 4.6 mph - N/A   Scattered Clouds
2:15 PM 85.5 °F 89.1 °F 68.5 °F 57% 30.02 in 10.0 mi SW 5.8 mph - N/A   Scattered Clouds
2:35 PM 85.6 °F 89.1 °F 68.5 °F 56% 30.01 in 10.0 mi SSW 5.8 mph - N/A   Scattered Clouds
2:55 PM 86.4 °F 89.7 °F 68.0 °F 54% 30.00 in 10.0 mi South 5.8 mph - N/A   Clear
3:15 PM 85.8 °F 88.5 °F 67.1 °F 53% 29.99 in 10.0 mi Calm Calm - N/A   Scattered Clouds
3:35 PM 87.1 °F 89.9 °F 67.1 °F 51% 29.99 in 10.0 mi WSW 5.8 mph - N/A   Scattered Clouds
3:55 PM 86.9 °F 90.6 °F 68.4 °F 54% 29.98 in 10.0 mi West 4.6 mph - N/A   Scattered Clouds
4:15 PM 87.4 °F 90.8 °F 67.8 °F 52% 29.99 in 10.0 mi West 8.1 mph - N/A   Scattered Clouds
4:35 PM 87.6 °F 90.4 °F 66.9 °F 50% 29.98 in 10.0 mi West 10.4 mph - N/A   Scattered Clouds
4:55 PM 86.9 °F 90.3 °F 67.6 °F 53% 29.98 in 10.0 mi West 6.9 mph - N/A   Clear
5:15 PM 86.5 °F 90.3 °F 68.5 °F 55% 29.98 in 10.0 mi WSW 5.8 mph - N/A   Clear
5:35 PM 86.9 °F 89.6 °F 66.6 °F 51% 29.98 in 10.0 mi West 8.1 mph - N/A   Clear
5:55 PM 85.1 °F 87.7 °F 66.6 °F 54% 29.97 in 10.0 mi West 3.5 mph - N/A   Scattered Clouds
6:15 PM 85.5 °F 87.9 °F 66.6 °F 53% 29.96 in 10.0 mi Calm Calm - N/A   Clear
6:35 PM 84.7 °F 87.9 °F 67.8 °F 57% 29.97 in 10.0 mi Calm Calm - N/A   Clear
6:55 PM 83.3 °F 88.2 °F 71.2 °F 67% 29.97 in 10.0 mi Calm Calm - N/A   Clear
7:15 PM 82.4 °F 87.9 °F 72.9 °F 73% 29.96 in 10.0 mi Calm Calm - N/A   Clear
7:35 PM 82.9 °F 87.7 °F 71.4 °F 68% 29.97 in 10.0 mi Calm Calm - N/A   Clear
7:55 PM 80.1 °F 84.6 °F 74.1 °F 82% 29.97 in 10.0 mi Calm Calm - N/A   Clear
8:15 PM 79.0 °F - 72.9 °F 81% 29.97 in 10.0 mi Calm Calm - N/A   Clear
8:35 PM 77.2 °F - 73.4 °F 88% 29.97 in 10.0 mi Calm Calm - N/A   Clear
8:55 PM 77.0 °F - 73.6 °F 89% 29.97 in 10.0 mi Calm Calm - N/A   Clear
9:15 PM 75.7 °F - 75.7 °F 100% 29.97 in 10.0 mi Calm Calm - N/A   Clear
9:35 PM 75.0 °F - 75.0 °F 100% 29.98 in 10.0 mi Calm Calm - N/A   Clear
9:55 PM 74.3 °F - 74.3 °F 100% 29.98 in 10.0 mi Calm Calm - N/A   Clear
10:15 PM 73.4 °F - 73.4 °F 100% 29.98 in 10.0 mi Calm Calm - N/A   Clear
10:35 PM 73.4 °F - 73.4 °F 100% 29.98 in 10.0 mi Calm Calm - N/A   Clear
10:55 PM 72.7 °F - 72.7 °F 100% 29.98 in 10.0 mi Calm Calm - N/A   Clear
11:15 PM 73.2 °F - 73.2 °F 100% 29.98 in 10.0 mi Calm Calm - N/A   Clear
11:35 PM 72.0 °F - 72.0 °F 100% 29.99 in 10.0 mi Calm Calm - N/A   Clear
11:55 PM 72.3 °F - 72.3 °F 100% 29.99 in 10.0 mi Calm Calm - N/A   Clear